Volver al catálogo

STARLINK-3885

ActivoComunicacionesVLEO
NORAD 52463·PAYLOAD·🇺🇸 United States

Lanzado May 6, 2022 desde Cape Canaveral Space Force Station

Loading…

Próximos Pases (próximas 24 horas)

TLE

ActualizadoSource: CelesTrak SupGP

Época: Sep 14, 2026, 20:38 UTC

1 52463C 22049N   26257.86020833  .00020931  00000+0  59890-3 0  2574
2 52463  53.1582 270.3925 0001312  91.8566 199.0241 15.35385067    16

Sigue STARLINK-3885 en tiempo real con AllMySat

Download on the App Store